Boulder Muni, Boulder, CO, CO

12:48 AM MDT on October 22, 2019 (GMT -0600)
Boulder Muni, Boulder, CO

Weather History for KBDU - August, 2019

Change the Weather History Date:

Tuesday, August 13, 2019

  Actual Average Record
Temperature  
Mean Temperature 74 °F -  
Max Temperature 88 °F - 91 °F (2015)
Min Temperature 59 °F - 52 °F (2016)
Degree Days  
Heating Degree Days 0    
Month to date heating degree days 0  
Cooling Degree Days 9    
Month to date cooling degree days 131  
Growing Degree Days 23 (Base 50)    
Moisture  
Dew Point 46 °F    
Average Humidity 42    
Maximum Humidity 63    
Minimum Humidity 21    
Precipitation  
Precipitation 0.00 in - 0.02 in (2017)
Snow  
Snow 0.00 in - - ()
Snow Depth 0.00 in    
Sea Level Pressure  
Sea Level Pressure 30.21 in    
Wind  
Wind Speed 3 mph (ENE)    
Max Wind Speed 12 mph    
Max Gust Speed 20 mph    
Visibility 10 miles    
Events Thunderstorm    
T = Trace of Precipitation, MM = Missing Value Source: NWS Daily Summary

Daily Weather History Graph

Daily Weather History Graph

Search for Another Location

Airport or City:

Astronomy

Aug. 13, 2019 Rise Set
Actual Time 6:10 AM MDT 8:00 PM MDT
Civil Twilight 5:41 AM MDT 8:29 PM MDT
Nautical Twilight 5:05 AM MDT 9:05 PM MDT
Astronomical Twilight 4:27 AM MDT 9:42 PM MDT
Moon 7:17 PM MDT (8/13) 4:14 AM MDT (8/13)
Length of Visible Light 14h 48m
Length of Day
13h 50m
Waxing Gibbous, 97% of the Moon is Illuminated
Aug 13
Waxing Gibbous
Aug 15
Full
Aug 23
Last Quarter
Aug 30
New
Sep 5
First Quarter

Hourly Weather History & Observations

Time (MDT) Temp. Dew Point Humidity Pressure Visibility Wind Dir Wind Speed Gust Speed Precip Events Conditions
1:08 AM 68.0 °F 44.6 °F 43% 30.15 in 10.0 mi Calm Calm - N/A   Unknown
1:32 AM 64.4 °F 44.6 °F 49% 30.15 in 10.0 mi Calm Calm - N/A   Clear
1:50 AM 64.4 °F 44.6 °F 49% 30.15 in 10.0 mi Calm Calm - N/A   Clear
2:12 AM 64.4 °F 44.6 °F 49% 30.14 in 10.0 mi SW 3.5 mph - N/A   Clear
2:30 AM 64.4 °F 42.8 °F 45% 30.14 in 10.0 mi Calm Calm - N/A   Clear
2:48 AM 62.6 °F 42.8 °F 48% 30.14 in 10.0 mi Calm Calm - N/A   Clear
3:12 AM 60.8 °F 42.8 °F 52% 30.15 in 10.0 mi North 3.5 mph - N/A   Clear
3:30 AM 59.0 °F 42.8 °F 55% 30.15 in 10.0 mi Calm Calm - N/A   Clear
3:48 AM 62.6 °F 46.4 °F 55% 30.16 in 10.0 mi Calm Calm - N/A   Clear
4:12 AM 60.8 °F 44.6 °F 55% 30.17 in 10.0 mi SW 3.5 mph - N/A   Clear
4:30 AM 60.8 °F 44.6 °F 55% 30.17 in 10.0 mi SSW 3.5 mph - N/A   Clear
4:48 AM 60.8 °F 42.8 °F 52% 30.18 in 10.0 mi Calm Calm - N/A   Clear
5:12 AM 59.0 °F 44.6 °F 59% 30.18 in 10.0 mi Calm Calm - N/A   Clear
5:30 AM 59.0 °F 44.6 °F 59% 30.18 in 10.0 mi Calm Calm - N/A   Clear
5:48 AM 59.0 °F 42.8 °F 55% 30.19 in 10.0 mi Calm Calm - N/A   Clear
6:12 AM 59.0 °F 42.8 °F 55% 30.20 in 10.0 mi South 3.5 mph - N/A   Clear
6:30 AM 59.0 °F 42.8 °F 55% 30.20 in 10.0 mi South 3.5 mph - N/A   Clear
6:48 AM 59.0 °F 41.0 °F 51% 30.20 in 10.0 mi South 3.5 mph - N/A   Clear
7:12 AM 60.8 °F 41.0 °F 48% 30.20 in 10.0 mi SE 4.6 mph - N/A   Clear
7:30 AM 62.6 °F 41.0 °F 45% 30.20 in 10.0 mi SSE 6.9 mph - N/A   Clear
7:54 AM 66.2 °F 42.8 °F 43% 30.21 in 10.0 mi SE 3.5 mph - N/A   Clear
8:12 AM 68.0 °F 42.8 °F 40% 30.21 in 10.0 mi Calm Calm - N/A   Clear
8:30 AM 68.0 °F 48.2 °F 49% 30.21 in 10.0 mi East 4.6 mph - N/A   Clear
8:53 AM 69.8 °F 48.2 °F 46% 30.22 in 10.0 mi Calm Calm - N/A   Clear
9:12 AM 71.6 °F 46.4 °F 41% 30.22 in 10.0 mi ENE 5.8 mph - N/A   Clear
9:30 AM 71.6 °F 46.4 °F 41% 30.22 in 10.0 mi ESE 3.5 mph - N/A   Clear
9:50 AM 73.4 °F 46.4 °F 38% 30.21 in 10.0 mi ENE 3.5 mph - N/A   Clear
10:12 AM 77.0 °F 48.2 °F 36% 30.21 in 10.0 mi NE 3.5 mph - N/A   Clear
10:30 AM 77.0 °F 48.2 °F 36% 30.21 in 10.0 mi NE 5.8 mph - N/A   Clear
10:54 AM 80.6 °F 48.2 °F 32% 30.21 in 10.0 mi NE 6.9 mph - N/A   Clear
11:12 AM 80.6 °F 46.4 °F 30% 30.21 in 10.0 mi NE 5.8 mph - N/A   Clear
11:30 AM 82.4 °F 46.4 °F 28% 30.21 in 10.0 mi East 6.9 mph - N/A   Clear
11:48 AM 82.4 °F 46.4 °F 28% 30.21 in 10.0 mi NE 9.2 mph - N/A   Clear
12:12 PM 84.2 °F 46.4 °F 27% 30.21 in 10.0 mi ENE 8.1 mph - N/A   Clear
12:30 PM 86.0 °F 46.4 °F 25% 30.21 in 10.0 mi ENE 8.1 mph - N/A   Clear
12:48 PM 86.0 °F 46.4 °F 25% 30.20 in 10.0 mi ENE 8.1 mph - N/A   Clear
1:12 PM 87.8 °F 42.8 °F 21% 30.21 in 10.0 mi NE 10.4 mph - N/A   Clear
1:30 PM 86.0 °F 42.8 °F 22% 30.21 in 10.0 mi NE 12.7 mph 17.3 mph N/A   Clear
1:48 PM 86.0 °F 42.8 °F 22% 30.20 in 10.0 mi NE 11.5 mph 19.6 mph N/A   Clear
2:12 PM 84.2 °F 41.0 °F 22% 30.20 in 7.0 mi ENE 9.2 mph - N/A   Clear
2:30 PM 86.0 °F 41.0 °F 20% 30.20 in 10.0 mi NNE 3.5 mph - N/A   Clear
2:48 PM 86.0 °F 42.8 °F 22% 30.20 in 10.0 mi NE 6.9 mph - N/A   Clear
3:12 PM 84.2 °F 42.8 °F 23% 30.18 in 10.0 mi North 3.5 mph - N/A   Clear
3:30 PM 86.0 °F 42.8 °F 22% 30.18 in 10.0 mi NNE 6.9 mph - N/A   Clear
3:48 PM 86.0 °F 41.0 °F 20% 30.17 in 10.0 mi NNE 6.9 mph - N/A   Clear
4:12 PM 87.8 °F 42.8 °F 21% 30.17 in 10.0 mi NE 5.8 mph - N/A   Clear
4:30 PM 87.8 °F 41.0 °F 19% 30.17 in 10.0 mi ENE 9.2 mph - N/A   Clear
4:48 PM 87.8 °F 42.8 °F 21% 30.17 in 10.0 mi ENE 3.5 mph - N/A   Clear
5:12 PM 87.8 °F 42.8 °F 21% 30.18 in 10.0 mi East 6.9 mph - N/A   Clear
5:30 PM 87.8 °F 42.8 °F 21% 30.18 in 10.0 mi ENE 4.6 mph - N/A   Clear
5:48 PM 86.0 °F 42.8 °F 22% 30.18 in 10.0 mi East 4.6 mph - N/A   Clear
6:08 PM 86.0 °F 42.8 °F 22% 30.18 in 10.0 mi ENE 4.6 mph - N/A   Clear
6:32 PM 82.4 °F 42.8 °F 25% 30.18 in 10.0 mi ENE 5.8 mph - N/A   Clear
6:50 PM 80.6 °F 44.6 °F 28% 30.18 in 10.0 mi NE 6.9 mph - N/A   Clear
7:12 PM 78.8 °F 44.6 °F 30% 30.20 in 10.0 mi NE 6.9 mph - N/A   Clear
7:30 PM 78.8 °F 46.4 °F 32% 30.20 in 10.0 mi NE 5.8 mph - N/A   Clear
7:48 PM 77.0 °F 46.4 °F 34% 30.21 in 10.0 mi NNE 5.8 mph - N/A   Clear
8:12 PM 75.2 °F 51.8 °F 44% 30.24 in 10.0 mi East 4.6 mph - N/A   Clear
8:30 PM 73.4 °F 55.4 °F 53% 30.25 in 10.0 mi East 4.6 mph - N/A   Clear
8:48 PM 71.6 °F 57.2 °F 60% 30.27 in 10.0 mi East 3.5 mph - N/A   Clear
9:12 PM 71.6 °F 55.4 °F 57% 30.29 in 10.0 mi East 3.5 mph - N/A   Clear
9:30 PM 69.8 °F 55.4 °F 60% 30.30 in 10.0 mi ENE 4.6 mph - N/A   Clear
9:48 PM 69.8 °F 55.4 °F 60% 30.30 in 10.0 mi ESE 5.8 mph - N/A   Clear
10:12 PM 69.8 °F 55.4 °F 60% 30.31 in 10.0 mi Calm Calm - N/A   Overcast
10:30 PM 69.8 °F 55.4 °F 60% 30.32 in 10.0 mi ESE 3.5 mph - N/A Thunderstorm Overcast
10:48 PM 69.8 °F 53.6 °F 56% 30.31 in 10.0 mi East 4.6 mph - N/A   Overcast
11:12 PM 68.0 °F 53.6 °F 60% 30.32 in 10.0 mi Calm Calm - N/A   Overcast
11:30 PM 68.0 °F 53.6 °F 60% 30.33 in 10.0 mi Calm Calm - N/A   Overcast
11:53 PM 66.2 °F 53.6 °F 64% 30.32 in 10.0 mi ESE 4.6 mph - N/A   Scattered Clouds